DW5950 Weather Reports


Display with metric or nautical units.
time (UTC)temp
F
wind
direction
speed
MPH
gust
MPH
rain 1hr
in
rain 24hr
in
rain mn
in
humidity
%
barometer
mb
20190124060012 54 97 2.0 4.0 0.00 0.00 0.00 49 1011.7
20190124054637 53 111 1.0 3.0 0.00 0.00 0.00 48 1011.8
20190124053221 51 91 1.0 3.0 0.00 0.00 0.00 50 1011.7
20190124051635 50 113 1.0 3.0 0.00 0.00 0.00 51 1011.7
20190124050228 49 111 1.0 3.0 0.00 0.00 0.00 51 1011.6
20190124044647 50 91 1.0 3.0 0.00 0.00 0.00 50 1011.4
20190124043105 50 99 1.0 3.0 0.00 0.00 0.00 50 1011.4
20190124041638 49 105 1.0 2.0 0.00 0.00 0.00 50 1011.5
20190124040127 49 113 1.0 5.0 0.00 0.00 0.00 51 1011.4
20190124034705 50 103 2.0 5.0 0.00 0.00 0.00 51 1011.4
20190124033059 50 91 1.0 3.0 0.00 0.00 0.00 50 1011.2
20190124031605 50 94 1.0 3.0 0.00 0.00 0.00 49 1011.1
20190124030147 50 105 0.0 3.0 0.00 0.00 0.00 50 1011.1
20190124024716 50 100 1.0 5.0 0.00 0.00 0.00 49 1011.2
20190124023131 49 108 1.0 4.0 0.00 0.00 0.00 51 1011.4
20190124021628 48 98 0.0 2.0 0.00 0.00 0.00 53 1011.5
20190124020122 48 107 2.0 4.0 0.00 0.00 0.00 54 1011.8
20190124014613 47 108 0.0 4.0 0.00 0.00 0.00 56 1011.8
20190124013116 47 115 1.0 3.0 0.00 0.00 0.00 56 1011.7
20190124011559 48 109 3.0 6.0 0.00 0.00 0.00 54 1011.8
20190124010047 49 105 0.0 4.0 0.00 0.00 0.00 53 1011.8
20190124004530 49 105 0.0 2.0 0.00 0.00 0.00 54 1011.9
20190124003102 50 91 0.0 3.0 0.00 0.00 0.00 52 1012.1
20190124001536 50 96 1.0 4.0 0.00 0.00 0.00 53 1012.4
20190124000035 50 117 1.0 4.0 0.00 0.00 0.00 54 1012.6
20190123234541 50 113 1.0 3.0 0.00 0.00 0.00 55 1012.7
20190123233025 50 89 1.0 4.0 0.00 0.00 0.00 54 1012.7
20190123231525 50 102 1.0 3.0 0.00 0.00 0.00 54 1012.7
20190123230027 50 103 0.0 2.0 0.00 0.00 0.00 55 1012.6
20190123224519 50 100 0.0 2.0 0.00 0.00 0.00 55 1012.6
20190123223028 50 98 0.0 3.0 0.00 0.00 0.00 55 1012.5
20190123221511 50 105 0.0 2.0 0.00 0.00 0.00 56 1012.8
20190123220007 50 105 0.0 3.0 0.00 0.00 0.00 55 1013.0
20190123214504 51 105 1.0 3.0 0.00 0.00 0.00 55 1013.2
20190123213007 50 97 0.0 3.0 0.00 0.00 0.00 55 1013.3
20190123211503 50 115 1.0 3.0 0.00 0.00 0.00 58 1013.3
20190123210147 50 109 0.0 2.0 0.00 0.00 0.00 58 1013.3
20190123204658 50 119 0.0 2.0 0.00 0.00 0.00 59 1013.4
20190123203210 50 115 0.0 2.0 0.00 0.00 0.00 61 1013.4
20190123201609 49 105 0.0 0.0 0.00 0.00 0.00 68 1013.6
20190123200339 50 105 0.0 0.0 0.00 0.00 0.00 63 1013.4
20190123194733 51 105 0.0 0.0 0.00 0.00 0.00 64 1013.5
20190123193204 51 105 0.0 3.0 0.00 0.00 0.00 64 1013.7
20190123191646 51 109 1.0 3.0 0.00 0.00 0.00 65 1014.3
20190123190149 51 108 0.0 2.0 0.00 0.00 0.00 65 1014.6
20190123184702 51 107 0.0 4.0 0.00 0.00 0.00 66 1014.5
20190123183130 51 143 0.0 1.0 0.00 0.00 0.00 67 1014.6
20190123181641 51 123 0.0 2.0 0.00 0.00 0.00 67 1014.4
20190123180240 51 201 0.0 2.0 0.00 0.00 0.00 67 1014.4
20190123174633 51 105 0.0 0.0 0.00 0.00 0.00 67 1014.4
20190123173143 50 105 0.0 1.0 0.00 0.00 0.00 68 1014.3
20190123171636 51 102 0.0 0.0 0.00 0.00 0.00 68 1014.2
20190123170138 51 101 0.0 1.0 0.00 0.00 0.00 68 1014.2
20190123164619 51 96 0.0 1.0 0.00 0.00 0.00 69 1014.6
20190123163141 51 109 0.0 4.0 0.00 0.00 0.00 67 1014.8
20190123161553 52 103 1.0 4.0 0.00 0.00 0.00 66 1015.2
20190123160015 52 137 0.0 1.0 0.00 0.00 0.00 66 1015.1
20190123154516 52 136 0.0 2.0 0.00 0.00 0.00 66 1015.0
20190123153006 52 136 0.0 3.0 0.00 0.00 0.00 66 1015.0
20190123151505 53 137 0.0 2.0 0.00 0.00 0.00 65 1015.1
20190123150004 55 4 0.0 0.0 0.00 0.00 0.00 61 1015.1
20190123144505 57 3 0.0 1.0 0.00 0.00 0.00 59 1015.2
20190123143006 58 356 0.0 2.0 0.00 0.00 0.00 54 1015.3
20190123141721 58 358 0.0 4.0 0.00 0.00 0.00 52 1015.3
20190123140139 59 68 1.0 5.0 0.00 0.00 0.00 50 1015.5
20190123134636 59 11 0.0 6.0 0.00 0.00 0.00 50 1015.8
20190123133433 60 4 2.0 6.0 0.00 0.00 0.00 47 1016.0
20190123131612 60 41 1.0 5.0 0.00 0.00 0.00 49 1016.2
20190123130116 61 42 0.0 4.0 0.00 0.00 0.00 49 1016.2
20190123124652 61 49 1.0 6.0 0.00 0.00 0.00 48 1016.3
20190123123150 61 41 1.0 5.0 0.00 0.00 0.00 49 1016.4
20190123121618 61 75 1.0 5.0 0.00 0.00 0.00 50 1016.4
20190123120205 61 43 1.0 5.0 0.00 0.00 0.00 50 1016.4
20190123114501 61 25 1.0 4.0 0.00 0.00 0.00 51 1016.4
20190123113004 61 40 2.0 5.0 0.00 0.00 0.00 51 1016.4
20190123111716 61 36 0.0 5.0 0.00 0.00 0.00 52 1016.6
20190123110212 61 27 1.0 4.0 0.00 0.00 0.00 50 1016.6
20190123104704 61 30 2.0 6.0 0.00 0.00 0.00 51 1016.6
20190123103156 61 26 1.0 7.0 0.00 0.00 0.00 51 1016.9
20190123101628 61 16 3.0 6.0 0.00 0.00 0.00 50 1016.9
20190123100107 60 313 2.0 8.0 0.00 0.00 0.00 51 1017.0
20190123094627 61 15 2.0 6.0 0.00 0.00 0.00 51 1017.2
20190123093122 61 305 1.0 6.0 0.00 0.00 0.00 50 1017.6
20190123091619 61 81 0.0 4.0 0.00 0.00 0.00 50 1017.7
20190123090128 60 30 0.0 3.0 0.00 0.00 0.00 49 1018.0
20190123084603 60 346 1.0 4.0 0.00 0.00 0.00 51 1018.2
20190123083111 60 27 0.0 4.0 0.00 0.00 0.00 50 1018.5
20190123081612 59 358 0.0 1.0 0.00 0.00 0.00 51 1018.5
20190123074501 58 349 0.0 1.0 0.00 0.00 0.00 52 1018.7
20190123073236 58 352 0.0 1.0 0.00 0.00 0.00 52 1018.8
20190123071711 57 19 0.0 1.0 0.00 0.00 0.00 52 1018.7
20190123070127 57 21 0.0 1.0 0.00 0.00 0.00 54 1018.6
20190123064701 56 92 0.0 0.0 0.00 0.00 0.00 54 1018.8
20190123063119 54 91 0.0 2.0 0.00 0.00 0.00 56 1018.7
20190123061713 53 96 0.0 2.0 0.00 0.00 0.00 57 1018.6